�������l�o���
Date,Time,MP-1(��Sv/h),MP-2(��Sv/h),MP-3(��Sv/h),MP-4(��Sv/h),MP-5(��Sv/h),MP-6(��Sv/h),MP-7(��Sv/h),MP-8(��Sv/h),����,����(m/s),���J
2020/04/23,00:00,0.684,0.978,0.646,1.187,0.838,0.394,0.687,0.652,�k��,2.9,��
2020/04/23,00:10,0.683,0.978,0.646,1.185,0.836,0.395,0.687,0.652,�k��,2.3,��
2020/04/23,00:20,0.682,0.979,0.646,1.185,0.838,0.394,0.686,0.652,���k��,4.1,��
2020/04/23,00:30,0.680,0.979,0.644,1.183,0.838,0.394,0.688,0.653,���k��,5.1,��
2020/04/23,00:40,0.681,0.977,0.647,1.186,0.838,0.394,0.688,0.653,���k��,5.1,��
2020/04/23,00:50,0.683,0.978,0.645,1.185,0.838,0.394,0.688,0.653,�k��,4.8,��
2020/04/23,01:00,0.684,0.978,0.644,1.185,0.838,0.395,0.688,0.652,���k��,4.9,��
2020/04/23,01:10,0.684,0.979,0.646,1.186,0.837,0.394,0.689,0.652,�k��,9.8,��
2020/04/23,01:20,0.683,0.979,0.648,1.187,0.839,0.395,0.689,0.652,���k��,7.7,��
2020/04/23,01:30,0.681,0.979,0.646,1.187,0.840,0.394,0.688,0.652,���k��,7.8,��
2020/04/23,01:40,0.683,0.978,0.647,1.186,0.838,0.394,0.688,0.654,���k��,5.8,��
2020/04/23,01:50,0.683,0.979,0.646,1.187,0.839,0.395,0.687,0.652,���k��,5.0,��
2020/04/23,02:00,0.682,0.977,0.646,1.186,0.838,0.395,0.686,0.653,�k��,4.6,��
2020/04/23,02:10,0.681,0.979,0.647,1.188,0.840,0.395,0.687,0.653,�k��,6.8,��
2020/04/23,02:20,0.683,0.978,0.645,1.188,0.840,0.394,0.686,0.652,���k��,6.9,��
2020/04/23,02:30,0.684,0.977,0.645,1.186,0.837,0.394,0.687,0.654,��,3.4,��
2020/04/23,02:40,0.682,0.978,0.646,1.187,0.838,0.394,0.686,0.653,�k��,1.5,��
2020/04/23,02:50,0.683,0.981,0.647,1.186,0.841,0.395,0.686,0.653,-,CALM,��
2020/04/23,03:00,0.682,0.978,0.646,1.188,0.838,0.396,0.687,0.653,���쐼,2.6,��
2020/04/23,03:10,0.685,0.977,0.646,1.184,0.837,0.393,0.687,0.652,��,1.8,��
2020/04/23,03:20,0.683,0.978,0.645,1.189,0.839,0.394,0.688,0.653,���k��,1.9,��
2020/04/23,03:30,0.682,0.978,0.646,1.185,0.837,0.394,0.688,0.654,��,2.6,��
2020/04/23,03:40,0.681,0.978,0.644,1.185,0.840,0.394,0.686,0.652,���k��,3.3,��
2020/04/23,03:50,0.682,0.978,0.644,1.185,0.840,0.394,0.688,0.652,���k��,3.8,��
2020/04/23,04:00,0.681,0.978,0.646,1.185,0.839,0.394,0.688,0.652,���k��,2.3,��
2020/04/23,04:10,0.684,0.978,0.644,1.186,0.839,0.394,0.687,0.654,�k��,4.6,��
2020/04/23,04:20,0.683,0.978,0.646,1.187,0.840,0.394,0.687,0.653,�k��,6.3,��
2020/04/23,04:30,0.682,0.979,0.646,1.187,0.840,0.396,0.687,0.653,���k��,4.3,��
2020/04/23,04:40,0.682,0.978,0.646,1.187,0.837,0.394,0.687,0.652,���k��,4.4,��
2020/04/23,04:50,0.684,0.980,0.644,1.189,0.837,0.394,0.687,0.651,���k��,5.1,��
2020/04/23,05:00,0.683,0.978,0.647,1.186,0.837,0.395,0.686,0.651,���k��,4.6,��
2020/04/23,05:10,0.681,0.979,0.645,1.183,0.839,0.395,0.687,0.653,��,4.4,��
2020/04/23,05:20,0.682,0.979,0.647,1.187,0.839,0.394,0.688,0.653,��,5.4,��
2020/04/23,05:30,0.684,0.978,0.645,1.186,0.838,0.394,0.688,0.653,���k��,7.4,��
2020/04/23,05:40,0.684,0.979,0.644,1.189,0.837,0.394,0.687,0.653,���k��,6.9,��
2020/04/23,05:50,0.685,0.980,0.646,1.186,0.838,0.394,0.688,0.653,���k��,7.0,��
2020/04/23,06:00,0.684,0.978,0.646,1.188,0.838,0.392,0.689,0.652,���k��,6.5,��
2020/04/23,06:10,0.685,0.979,0.645,1.186,0.839,0.394,0.688,0.652,���k��,6.2,��
2020/04/23,06:20,0.682,0.976,0.646,1.188,0.838,0.394,0.687,0.653,���k��,4.3,��
2020/04/23,06:30,0.683,0.981,0.644,1.188,0.839,0.394,0.688,0.653,���k��,5.0,��
2020/04/23,06:40,0.682,0.980,0.646,1.189,0.838,0.395,0.687,0.653,���k��,5.2,�L
2020/04/23,06:50,0.684,0.981,0.646,1.187,0.838,0.395,0.689,0.653,���k��,6.1,��
2020/04/23,07:00,0.682,0.980,0.644,1.190,0.840,0.395,0.688,0.653,��,5.0,��
2020/04/23,07:10,0.683,0.980,0.646,1.188,0.840,0.395,0.689,0.653,��,5.3,��
2020/04/23,07:20,0.684,0.981,0.645,1.190,0.840,0.394,0.689,0.653,���k��,4.7,��
2020/04/23,07:30,0.684,0.982,0.646,1.188,0.839,0.394,0.688,0.652,��,4.8,��
2020/04/23,07:40,0.686,0.979,0.647,1.189,0.840,0.392,0.688,0.655,��,5.6,��
2020/04/23,07:50,0.684,0.981,0.646,1.191,0.840,0.393,0.689,0.653,��,5.6,��
2020/04/23,08:00,0.685,0.981,0.647,1.189,0.839,0.393,0.689,0.654,��,8.5,��
2020/04/23,08:10,0.686,0.981,0.647,1.189,0.838,0.394,0.688,0.652,���k��,10.7,��
2020/04/23,08:20,0.686,0.979,0.647,1.191,0.841,0.393,0.687,0.656,��,9.4,��
2020/04/23,08:30,0.686,0.978,0.646,1.188,0.842,0.395,0.690,0.653,��,10.0,��
2020/04/23,08:40,0.688,0.979,0.646,1.187,0.840,0.394,0.688,0.655,���k��,9.0,��
2020/04/23,08:50,0.688,0.977,0.648,1.191,0.842,0.394,0.685,0.654,���k��,9.8,��
2020/04/23,09:00,0.687,0.977,0.645,1.191,0.841,0.396,0.688,0.654,��,8.2,��
2020/04/23,09:10,0.690,0.980,0.646,1.191,0.841,0.393,0.688,0.651,���k��,8.8,��
2020/04/23,09:20,0.688,0.977,0.646,1.190,0.842,0.395,0.687,0.653,��,9.6,��
2020/04/23,09:30,0.688,0.975,0.648,1.190,0.842,0.394,0.687,0.651,��,7.4,��
2020/04/23,09:40,0.690,0.977,0.648,1.190,0.843,0.395,0.688,0.651,��,9.9,��
2020/04/23,09:50,0.687,0.977,0.649,1.190,0.843,0.394,0.688,0.650,��,10.5,��
2020/04/23,10:00,0.686,0.977,0.650,1.193,0.842,0.394,0.687,0.652,���쐼,9.4,��
2020/04/23,10:10,0.687,0.976,0.649,1.191,0.843,0.394,0.689,0.651,��,7.8,��
2020/04/23,10:20,0.687,0.976,0.649,1.191,0.843,0.397,0.688,0.651,���k��,8.4,��
2020/04/23,10:30,0.687,0.979,0.649,1.194,0.843,0.395,0.687,0.652,���k��,7.7,��
2020/04/23,10:40,0.686,0.979,0.647,1.192,0.845,0.395,0.689,0.651,���k��,10.5,��
2020/04/23,10:50,0.688,0.979,0.647,1.192,0.843,0.395,0.687,0.651,���k��,7.1,��
2020/04/23,11:00,0.688,0.979,0.648,1.192,0.844,0.396,0.689,0.650,���쐼,7.2,��
2020/04/23,11:10,0.686,0.983,0.648,1.194,0.844,0.397,0.687,0.650,��,9.0,��
2020/04/23,11:20,0.688,0.981,0.646,1.196,0.842,0.396,0.689,0.652,���쐼,8.2,��
2020/04/23,11:30,0.687,0.984,0.650,1.194,0.845,0.396,0.689,0.652,���k��,7.9,�L
2020/04/23,11:40,0.688,0.979,0.646,1.193,0.842,0.396,0.690,0.651,��,7.6,��
2020/04/23,11:50,0.691,0.986,0.647,1.193,0.844,0.397,0.689,0.652,���k��,7.1,��
2020/04/23,12:00,0.690,0.987,0.645,1.194,0.845,0.397,0.691,0.653,��,3.7,��
2020/04/23,12:10,0.690,0.987,0.646,1.194,0.847,0.396,0.689,0.653,��,6.0,��
2020/04/23,12:20,0.689,0.987,0.648,1.192,0.844,0.397,0.688,0.651,��,4.7,��
2020/04/23,12:30,0.688,0.988,0.649,1.192,0.845,0.395,0.688,0.653,��,1.4,��
2020/04/23,12:40,0.690,0.986,0.648,1.195,0.845,0.396,0.689,0.652,��,3.1,��
2020/04/23,12:50,0.688,0.984,0.647,1.195,0.844,0.397,0.690,0.653,��쐼,4.0,��
2020/04/23,13:00,0.688,0.985,0.647,1.197,0.845,0.397,0.690,0.652,��쓌,5.7,��
2020/04/23,13:10,0.687,0.983,0.651,1.194,0.846,0.396,0.690,0.651,��,4.3,��
2020/04/23,13:20,0.691,0.983,0.647,1.195,0.846,0.396,0.688,0.652,��,5.0,��
2020/04/23,13:30,0.688,0.984,0.648,1.196,0.847,0.397,0.688,0.653,��쓌,7.6,��
2020/04/23,13:40,0.688,0.984,0.650,1.195,0.847,0.397,0.689,0.652,��쓌,6.1,��
2020/04/23,13:50,0.692,0.986,0.652,1.194,0.848,0.399,0.689,0.653,��쓌,6.7,��
2020/04/23,14:00,0.688,0.984,0.651,1.195,0.847,0.398,0.689,0.652,��,4.7,��
2020/04/23,14:10,0.691,0.984,0.650,1.197,0.849,0.397,0.689,0.654,��쓌,7.2,��
2020/04/23,14:20,0.690,0.986,0.652,1.195,0.847,0.397,0.688,0.652,��쓌,5.6,��
2020/04/23,14:30,0.688,0.984,0.652,1.195,0.848,0.398,0.690,0.652,��쓌,6.6,��
2020/04/23,14:40,0.689,0.986,0.652,1.196,0.849,0.397,0.690,0.652,��쓌,7.5,��
2020/04/23,14:50,0.689,0.988,0.653,1.195,0.848,0.397,0.689,0.652,��쓌,7.5,��
2020/04/23,15:00,0.687,0.988,0.653,1.193,0.847,0.396,0.690,0.653,��쓌,5.4,��
2020/04/23,15:10,0.690,0.988,0.651,1.192,0.847,0.396,0.690,0.654,��쓌,5.8,��
2020/04/23,15:20,0.690,0.991,0.653,1.190,0.849,0.397,0.691,0.654,��쓌,4.4,��
2020/04/23,15:30,0.691,0.992,0.653,1.193,0.848,0.398,0.689,0.652,���쐼,5.5,��
2020/04/23,15:40,0.690,0.992,0.654,1.193,0.848,0.398,0.691,0.654,���쐼,5.6,��
2020/04/23,15:50,0.691,0.992,0.654,1.195,0.849,0.397,0.691,0.654,���쐼,6.6,��
2020/04/23,16:00,0.691,0.993,0.654,1.193,0.849,0.398,0.691,0.653,��,7.9,��
2020/04/23,16:10,0.693,0.992,0.654,1.195,0.849,0.397,0.690,0.653,��,6.4,��
2020/04/23,16:20,0.690,0.993,0.654,1.196,0.849,0.398,0.689,0.654,���쐼,9.4,��
2020/04/23,16:30,0.692,0.994,0.654,1.195,0.848,0.399,0.689,0.654,���쐼,7.1,��
2020/04/23,16:40,0.689,0.995,0.653,1.197,0.849,0.398,0.690,0.651,���쐼,6.7,��
2020/04/23,16:50,0.692,0.993,0.653,1.197,0.849,0.399,0.690,0.654,��,6.2,��
2020/04/23,17:00,0.691,0.993,0.653,1.196,0.846,0.399,0.690,0.651,��,9.6,��
2020/04/23,17:10,0.691,0.995,0.655,1.194,0.849,0.398,0.691,0.652,��,8.5,��
2020/04/23,17:20,0.690,0.994,0.656,1.196,0.849,0.399,0.690,0.653,���쐼,9.0,��
2020/04/23,17:30,0.691,0.995,0.653,1.195,0.851,0.399,0.689,0.653,���쐼,7.6,��
2020/04/23,17:40,0.688,0.995,0.653,1.195,0.849,0.398,0.690,0.655,��,7.4,��
2020/04/23,17:50,0.692,0.995,0.652,1.200,0.847,0.400,0.689,0.654,��,5.9,��
2020/04/23,18:00,0.693,0.996,0.653,1.196,0.850,0.399,0.689,0.655,��,5.1,��
2020/04/23,18:10,0.691,0.996,0.652,1.197,0.849,0.399,0.689,0.656,��,4.2,��
2020/04/23,18:20,0.694,0.997,0.654,1.201,0.850,0.399,0.689,0.655,��,5.8,��
2020/04/23,18:30,0.689,0.995,0.654,1.199,0.852,0.399,0.691,0.656,��,8.5,��
2020/04/23,18:40,0.693,0.996,0.657,1.198,0.851,0.399,0.688,0.656,���k��,8.4,��
2020/04/23,18:50,0.692,0.995,0.655,1.198,0.852,0.399,0.689,0.655,��,8.0,��
2020/04/23,19:00,0.691,0.995,0.656,1.200,0.852,0.400,0.689,0.656,��,8.4,��
2020/04/23,19:10,0.693,0.995,0.655,1.201,0.851,0.400,0.690,0.657,��,8.6,��
2020/04/23,19:20,0.694,0.995,0.655,1.202,0.853,0.398,0.689,0.655,��,8.8,��
2020/04/23,19:30,0.692,0.995,0.656,1.199,0.851,0.399,0.688,0.655,��,7.3,��
2020/04/23,19:40,0.692,0.998,0.654,1.201,0.853,0.400,0.690,0.656,��,6.0,��
2020/04/23,19:50,0.691,0.995,0.655,1.199,0.850,0.398,0.690,0.655,��,6.0,��
2020/04/23,20:00,0.692,0.996,0.656,1.199,0.851,0.399,0.689,0.655,��,5.9,��
2020/04/23,20:10,0.691,0.995,0.654,1.200,0.851,0.399,0.691,0.656,��,5.6,��
2020/04/23,20:20,0.691,0.993,0.656,1.200,0.852,0.398,0.690,0.655,���k��,6.8,��
2020/04/23,20:30,0.691,0.995,0.656,1.199,0.851,0.399,0.690,0.655,��,8.5,��
2020/04/23,20:40,0.691,0.995,0.655,1.201,0.854,0.397,0.691,0.654,��,8.3,��
2020/04/23,20:50,0.692,0.996,0.655,1.200,0.851,0.398,0.689,0.655,��,6.3,��
2020/04/23,21:00,0.691,0.995,0.654,1.201,0.849,0.398,0.689,0.655,���k��,7.7,��
2020/04/23,21:10,0.691,0.994,0.656,1.198,0.849,0.397,0.689,0.656,��,7.9,��
2020/04/23,21:20,0.693,0.994,0.656,1.202,0.851,0.399,0.689,0.656,���k��,8.3,��
2020/04/23,21:30,0.689,0.992,0.654,1.202,0.850,0.398,0.692,0.655,���k��,9.6,��
2020/04/23,21:40,0.691,0.996,0.654,1.199,0.851,0.398,0.690,0.655,���k��,9.8,��
2020/04/23,21:50,0.690,0.995,0.656,1.201,0.851,0.398,0.689,0.655,��,8.7,��
2020/04/23,22:00,0.691,0.995,0.656,1.201,0.850,0.400,0.691,0.655,��,8.8,��
2020/04/23,22:10,0.688,0.995,0.656,1.200,0.850,0.397,0.688,0.654,��,10.3,��
2020/04/23,22:20,0.690,0.994,0.656,1.202,0.849,0.399,0.691,0.654,��,8.8,��
2020/04/23,22:30,0.692,0.994,0.655,1.199,0.850,0.397,0.689,0.656,���k��,9.3,��
2020/04/23,22:40,0.691,0.995,0.654,1.201,0.852,0.398,0.690,0.657,��,9.5,��
2020/04/23,22:50,0.691,0.997,0.655,1.201,0.850,0.398,0.688,0.654,���k��,12.5,��
2020/04/23,23:00,0.692,0.997,0.655,1.199,0.852,0.397,0.689,0.655,��,10.5,��
2020/04/23,23:10,0.690,0.996,0.656,1.200,0.850,0.399,0.691,0.657,���k��,11.4,��
2020/04/23,23:20,0.691,0.997,0.653,1.201,0.853,0.398,0.690,0.654,���k��,9.7,��
2020/04/23,23:30,0.689,0.996,0.654,1.201,0.852,0.397,0.690,0.656,���k��,9.9,��
2020/04/23,23:40,0.689,0.994,0.656,1.203,0.848,0.398,0.689,0.653,���k��,10.2,��
2020/04/23,23:50,0.691,0.996,0.654,1.201,0.853,0.398,0.690,0.655,���k��,11.4,��
